Date,TemperatureHighF,TemperatureAvgF,TemperatureLowF,DewpointHighF,DewpointAvgF,DewpointLowF,HumidityHigh,HumidityAvg,HumidityLow,PressureMaxIn,PressureMinIn,WindSpeedMaxMPH,WindSpeedAvgMPH,GustSpeedMaxMPH,PrecipitationSumIn
2013-12-1,49.1,40.8,33.0,38.6,33.3,27.5,94,75,59,30.14,29.97,8,1,16,0.00
2013-12-2,39.2,34.7,30.7,35.4,32.2,29.1,95,91,80,29.98,29.84,8,1,13,0.03
2013-12-3,50.4,43.1,34.7,46.5,40.3,32.7,95,90,79,29.86,29.80,9,2,17,0.00
2013-12-4,61.0,54.1,48.0,55.7,50.4,44.5,92,87,81,29.87,29.69,12,5,25,0.00
2013-12-5,61.5,43.4,27.9,55.7,39.0,26.4,96,85,76,30.17,29.69,13,7,24,0.05
2013-12-6,30.9,28.7,26.2,27.9,25.9,22.3,96,89,81,30.38,30.15,7,1,13,0.04
2013-12-7,27.1,23.2,19.8,23.5,18.6,15.9,90,82,70,30.60,30.38,9,1,14,0.00
2013-12-8,31.4,24.3,18.9,30.4,20.9,15.2,96,87,77,30.55,29.96,12,5,21,0.00
2013-12-9,31.7,27.0,20.2,30.7,23.7,14.6,96,87,74,30.19,29.93,17,8,28,0.00
2013-12-10,27.0,20.7,14.4,17.4,13.3,6.9,84,73,60,30.26,30.04,21,7,35,0.00
2013-12-11,26.5,19.3,11.8,21.8,14.9,8.6,93,83,70,30.47,30.27,14,3,22,0.00
2013-12-12,19.8,12.8,3.8,9.9,5.0,-2.1,90,72,50,30.48,30.26,14,4,26,0.00
2013-12-13,32.1,25.6,17.0,29.4,17.0,4.1,94,70,52,30.26,30.16,7,1,14,0.04
2013-12-14,33.9,30.1,22.1,32.5,28.8,21.1,97,95,78,30.18,29.73,6,0,14,0.41
2013-12-15,25.7,19.7,14.5,24.5,17.6,12.3,96,92,87,30.09,29.83,0,0,0,0.00
2013-12-16,25.1,18.6,13.2,23.9,16.3,10.5,97,90,81,30.15,29.97,2,0,13,0.03
2013-12-17,28.3,24.4,20.5,26.8,23.2,19.5,98,95,92,30.06,29.94,7,1,20,0.00
2013-12-18,35.9,25.6,20.2,24.9,20.6,16.4,94,82,62,30.21,29.96,15,3,28,0.00
2013-12-19,48.1,42.4,34.8,41.4,33.7,23.1,79,71,61,30.01,29.89,12,7,23,0.00
2013-12-20,57.5,50.7,45.6,55.2,46.6,40.5,94,86,75,29.89,29.75,13,8,25,0.16
2013-12-21,57.6,44.1,34.6,55.6,42.5,33.0,97,94,89,29.83,29.54,13,3,25,2.86
2013-12-22,47.3,40.7,34.8,45.7,38.8,32.8,97,93,86,30.00,29.43,15,6,33,0.21
2013-12-23,35.5,29.0,20.1,33.4,25.0,12.5,92,85,72,30.35,30.01,12,7,21,0.00
2013-12-24,20.0,14.8,7.2,15.0,10.5,2.9,90,83,70,30.54,30.34,12,4,22,0.00
2013-12-25,28.1,22.9,16.6,25.8,18.5,13.2,93,83,67,30.48,30.15,10,6,25,0.00
2013-12-26,34.0,29.2,24.1,28.6,23.5,17.3,94,80,62,30.32,30.09,13,7,24,0.00
2013-12-27,45.6,37.7,33.0,35.9,30.1,24.8,82,74,67,30.36,30.19,12,6,21,0.00
2013-12-28,51.6,42.8,36.9,38.1,33.4,30.3,80,70,54,30.19,29.96,13,7,26,0.00
2013-12-29,45.6,38.9,27.4,36.2,32.0,23.7,92,77,61,30.01,29.73,14,6,25,0.00
2013-12-30,27.6,23.7,19.9,25.0,17.8,12.8,93,78,63,30.24,30.02,10,3,20,0.00
2013-12-31,23.3,19.4,14.1,18.9,15.1,8.5,92,83,73,30.33,30.10,12,4,24,0.00